FW5810 Weather Reports


time (UTC)temp
C
wind
direction
speed
KPH
gust
KPH
rain 1hr
cm
rain 24hr
cm
rain mn
cm
humidity
%
barometer
mb
20260906175915 24 28 14.5 17.7 0.00 0.00 0.00 51 1017.8
20260906175410 24 64 4.8 11.3 0.00 0.00 0.00 54 1017.8
20260906174909 24 101 3.2 8.0 0.00 0.00 0.00 51 1018.0
20260906174408 23 62 4.8 16.1 0.00 0.00 0.00 53 1018.0
20260906173903 23 42 4.8 11.3 0.00 0.00 0.00 55 1017.9
20260906173359 23 67 12.9 16.1 0.00 0.00 0.00 53 1018.0
20260906172858 22 85 4.8 6.4 0.00 0.00 0.00 56 1018.0
20260906172354 23 39 11.3 17.7 0.00 0.00 0.00 55 1018.0
20260906171849 24 358 9.7 22.5 0.00 0.00 0.00 54 1018.0
20260906171344 24 99 6.4 8.0 0.00 0.00 0.00 53 1018.0
20260906170839 23 57 3.2 19.3 0.00 0.00 0.00 55 1018.1
20260906170335 24 79 14.5 17.7 0.00 0.00 0.00 52 1018.2
20260906165832 23 53 3.2 6.4 0.00 0.00 0.00 55 1018.1
20260906165330 23 78 4.8 6.4 0.00 0.00 0.00 55 1018.0
20260906164826 23 73 4.8 8.0 0.00 0.00 0.00 57 1018.0
20260906164325 23 105 8.0 16.1 0.00 0.00 0.00 56 1018.0
20260906163821 23 73 8.0 17.7 0.00 0.00 0.00 57 1018.2
20260906163317 23 84 3.2 8.0 0.00 0.00 0.00 57 1018.2
20260906162815 23 86 3.2 16.1 0.00 0.00 0.00 54 1018.2
20260906162314 23 58 1.6 6.4 0.00 0.00 0.00 57 1018.2
20260906161809 23 69 6.4 11.3 0.00 0.00 0.00 55 1018.2
20260906161309 23 65 4.8 11.3 0.00 0.00 0.00 56 1018.4
20260906160807 23 8 20.9 24.1 0.00 0.00 0.00 54 1018.4
20260906160302 23 33 8.0 19.3 0.00 0.00 0.00 55 1018.4
20260906155759 23 64 4.8 6.4 0.00 0.00 0.00 56 1018.6
20260906155254 22 3 12.9 24.1 0.00 0.00 0.00 55 1018.2
20260906154749 22 155 6.4 16.1 0.00 0.00 0.00 56 1018.3
20260906154244 22 21 12.9 19.3 0.00 0.00 0.00 57 1018.2
20260906153743 23 68 11.3 16.1 0.00 0.00 0.00 56 1018.3
20260906153237 22 97 6.4 12.9 0.00 0.00 0.00 59 1018.5
20260906152733 22 17 4.8 12.9 0.00 0.00 0.00 61 1018.4
20260906152227 22 21 9.7 17.7 0.00 0.00 0.00 61 1018.4
20260906151727 22 114 6.4 11.3 0.00 0.00 0.00 60 1018.3
20260906151222 22 1 12.9 16.1 0.00 0.00 0.00 61 1018.4
20260906150718 21 24 6.4 16.1 0.00 0.00 0.00 62 1018.3
20260906150213 22 29 4.8 11.3 0.00 0.00 0.00 63 1018.3
20260906145712 21 40 4.8 12.9 0.00 0.00 0.00 65 1018.1
20260906145211 21 46 12.9 17.7 0.00 0.00 0.00 63 1018.3
20260906144706 21 18 16.1 22.5 0.00 0.00 0.00 63 1018.2
20260906144201 22 23 11.3 16.1 0.00 0.00 0.00 65 1018.3
20260906143700 21 108 3.2 6.4 0.00 0.00 0.00 66 1018.2
20260906143158 21 42 4.8 12.9 0.00 0.00 0.00 67 1018.1
20260906142652 20 49 9.7 17.7 0.00 0.00 0.00 69 1017.8
20260906142147 20 46 12.9 12.9 0.00 0.00 0.00 68 1018.0
20260906141646 21 35 8.0 16.1 0.00 0.00 0.00 67 1018.1
20260906141141 20 73 3.2 6.4 0.00 0.00 0.00 67 1018.0
20260906140640 21 21 4.8 11.3 0.00 0.00 0.00 68 1018.1
20260906140135 20 64 0.0 6.4 0.00 0.00 0.00 70 1018.0
20260906135632 20 37 6.4 12.9 0.00 0.00 0.00 70 1017.9
20260906135128 20 13 12.9 16.1 0.00 0.00 0.00 73 1017.8
20260906134624 19 81 1.6 4.8 0.00 0.00 0.00 76 1017.8
20260906134119 19 52 8.0 11.3 0.00 0.00 0.00 76 1017.8
20260906133614 19 22 4.8 6.4 0.00 0.00 0.00 78 1017.9
20260906133109 18 48 8.0 8.0 0.00 0.00 0.00 78 1017.8
20260906132604 18 18 6.4 8.0 0.00 0.00 0.00 79 1017.7
20260906132100 18 87 4.8 4.8 0.00 0.00 0.00 80 1017.9
20260906131555 18 8 8.0 8.0 0.00 0.00 0.00 81 1017.6
20260906131050 18 18 4.8 8.0 0.00 0.00 0.00 82 1017.8
20260906130549 18 43 4.8 11.3 0.00 0.00 0.00 83 1017.7
20260906130045 17 27 3.2 6.4 0.00 0.00 0.00 84 1017.7
20260906125537 18 17 4.8 6.4 0.00 0.00 0.00 84 1017.7
20260906125036 18 37 0.0 1.6 0.00 0.00 0.00 87 1017.6
20260906124532 17 37 0.0 1.6 0.00 0.00 0.00 91 1017.7
20260906124027 16 29 0.0 0.0 0.00 0.00 0.00 98 1017.7
20260906123526 15 29 0.0 0.0 0.00 0.00 0.00 99 1017.5
20260906123022 15 29 3.2 4.8 0.00 0.00 0.00 99 1017.6
20260906122521 15 39 1.6 1.6 0.00 0.00 0.00 99 1017.4
20260906122017 15 39 1.6 1.6 0.00 0.00 0.00 99 1017.3
20260906121514 15 39 0.0 1.6 0.00 0.00 0.00 99 1017.2
20260906121010 14 39 1.6 1.6 0.00 0.00 0.00 99 1017.4
20260906120510 14 39 1.6 1.6 0.00 0.00 0.00 99 1017.3
20260906120007 14 39 0.0 0.0 0.00 0.00 0.00 99 1017.3
20260906115502 14 39 0.0 0.0 0.00 0.00 0.00 99 1017.3
20260906114956 13 39 1.6 1.6 0.00 0.00 0.00 99 1017.0
20260906114451 13 39 0.0 0.0 0.00 0.00 0.00 99 1017.0
20260906113947 12 39 0.0 1.6 0.00 0.00 0.00 99 1017.0
20260906113445 12 38 0.0 0.0 0.00 0.00 0.00 99 1016.9
20260906112941 12 38 0.0 0.0 0.00 0.00 0.00 99 1016.7
20260906112436 12 38 0.0 0.0 0.00 0.00 0.00 99 1016.7
20260906111932 12 38 0.0 0.0 0.00 0.00 0.00 99 1016.7
20260906111431 12 38 0.0 0.0 0.00 0.00 0.00 99 1016.6
20260906110926 12 38 0.0 0.0 0.00 0.00 0.00 99 1016.7
20260906110422 12 38 1.6 1.6 0.00 0.00 0.00 99 1016.6
20260906105921 12 38 0.0 0.0 0.00 0.00 0.00 99 1016.5
20260906105417 12 38 0.0 0.0 0.00 0.00 0.00 99 1016.5
20260906104912 12 38 0.0 0.0 0.00 0.00 0.00 99 1016.5
20260906104411 12 38 0.0 0.0 0.00 0.00 0.00 99 1016.6
20260906103910 12 38 0.0 0.0 0.00 0.00 0.00 99 1016.4
20260906103408 12 38 0.0 0.0 0.00 0.00 0.00 99 1016.6
20260906102904 12 38 0.0 0.0 0.00 0.00 0.00 99 1016.5
20260906102403 12 38 0.0 0.0 0.00 0.00 0.00 99 1016.5
20260906101858 12 38 0.0 0.0 0.00 0.00 0.00 99 1016.4
20260906101353 12 38 0.0 0.0 0.00 0.00 0.00 99 1016.6
20260906100849 12 38 0.0 0.0 0.00 0.00 0.00 99 1016.3
20260906100348 12 38 0.0 0.0 0.00 0.00 0.00 99 1016.5
20260906095843 12 38 0.0 0.0 0.00 0.00 0.00 99 1016.4
20260906095339 12 38 0.0 0.0 0.00 0.00 0.00 99 1016.2
20260906094838 12 38 0.0 0.0 0.00 0.00 0.00 99 1016.2
20260906094333 12 38 0.0 0.0 0.00 0.00 0.00 99 1016.2
20260906093830 12 38 0.0 0.0 0.00 0.00 0.00 99 1016.2
20260906093325 12 38 0.0 0.0 0.00 0.00 0.00 99 1016.3
20260906092819 12 38 0.0 0.0 0.00 0.00 0.00 99 1016.3
20260906092314 12 38 0.0 0.0 0.00 0.00 0.00 99 1016.1
20260906091809 12 38 0.0 0.0 0.00 0.00 0.00 99 1016.3
20260906091305 12 38 0.0 0.0 0.00 0.00 0.00 99 1016.4
20260906090802 12 38 0.0 0.0 0.00 0.00 0.00 99 1016.6
20260906090300 12 38 0.0 0.0 0.00 0.00 0.00 99 1016.5
20260906085800 12 38 0.0 0.0 0.00 0.00 0.00 99 1016.3
20260906085253 12 38 0.0 0.0 0.00 0.00 0.00 99 1016.2
20260906084748 12 38 0.0 0.0 0.00 0.00 0.00 99 1016.2
20260906084242 12 38 0.0 0.0 0.00 0.00 0.00 99 1016.0
20260906083737 12 38 0.0 0.0 0.00 0.00 0.00 99 1016.2
20260906083233 12 38 0.0 0.0 0.00 0.00 0.00 99 1016.2
20260906082728 12 38 0.0 0.0 0.00 0.00 0.00 99 1015.9
20260906082223 12 38 0.0 0.0 0.00 0.00 0.00 99 1016.1
20260906081719 12 38 0.0 0.0 0.00 0.00 0.00 99 1016.0
20260906081214 12 38 0.0 0.0 0.00 0.00 0.00 99 1016.1
20260906080710 12 38 0.0 0.0 0.00 0.00 0.00 99 1015.8
20260906080206 13 38 0.0 0.0 0.00 0.00 0.00 99 1015.9
20260906075700 12 38 0.0 0.0 0.00 0.00 0.00 99 1015.8
20260906075154 12 38 0.0 0.0 0.00 0.00 0.00 99 1015.7
20260906074649 12 38 0.0 0.0 0.00 0.00 0.00 99 1015.7
20260906074143 13 38 0.0 0.0 0.00 0.00 0.00 99 1015.8
20260906073638 12 38 0.0 0.0 0.00 0.00 0.00 99 1015.8
20260906073134 12 38 0.0 0.0 0.00 0.00 0.00 99 1015.8
20260906072629 12 38 0.0 0.0 0.00 0.00 0.00 99 1015.7
20260906072124 12 38 0.0 0.0 0.00 0.00 0.00 99 1015.8
20260906071620 13 38 0.0 0.0 0.00 0.00 0.00 99 1015.9
20260906071115 13 38 0.0 0.0 0.00 0.00 0.00 99 1015.7
20260906070612 13 38 0.0 0.0 0.00 0.00 0.00 99 1015.9
20260906070107 13 38 0.0 0.0 0.00 0.00 0.00 98 1015.7
20260906065607 13 38 0.0 0.0 0.00 0.00 0.00 98 1015.6
20260906065102 13 38 0.0 0.0 0.00 0.00 0.00 98 1015.7
20260906064557 13 38 0.0 0.0 0.00 0.00 0.00 98 1015.6
20260906064052 13 38 0.0 0.0 0.00 0.00 0.00 98 1015.4
20260906063547 13 38 0.0 0.0 0.00 0.00 0.00 98 1015.8
20260906063043 13 38 0.0 0.0 0.00 0.00 0.00 98 1015.6
20260906062538 13 38 0.0 0.0 0.00 0.00 0.00 98 1015.6
20260906062032 13 38 0.0 0.0 0.00 0.00 0.00 98 1015.7
20260906061529 13 38 0.0 0.0 0.00 0.00 0.00 98 1015.7
20260906061027 13 38 0.0 0.0 0.00 0.00 0.00 98 1015.6
20260906060525 13 38 0.0 0.0 0.00 0.00 0.00 98 1015.6
20260906060021 13 38 0.0 0.0 0.00 0.00 0.00 98 1015.5
20260906055517 13 38 0.0 0.0 0.00 0.00 0.00 98 1015.5
20260906055012 13 38 0.0 0.0 0.00 0.00 0.00 98 1015.5
20260906054507 14 38 0.0 0.0 0.00 0.00 0.00 98 1015.6
20260906054003 14 38 0.0 0.0 0.00 0.00 0.00 98 1015.5
20260906053459 14 38 0.0 0.0 0.00 0.00 0.00 98 1015.4
20260906052954 13 38 0.0 0.0 0.00 0.00 0.00 98 1015.5
20260906052450 13 38 0.0 0.0 0.00 0.00 0.00 97 1015.4
20260906051947 13 38 0.0 0.0 0.00 0.00 0.00 97 1015.4
20260906051442 14 38 0.0 0.0 0.00 0.00 0.00 97 1015.5
20260906050937 14 38 0.0 0.0 0.00 0.00 0.00 97 1015.5
20260906050437 14 38 0.0 0.0 0.00 0.00 0.00 97 1015.2
20260906045936 15 38 0.0 0.0 0.00 0.00 0.00 97 1015.3
20260906045435 15 38 0.0 0.0 0.00 0.00 0.00 97 1015.4
20260906044931 15 38 0.0 0.0 0.00 0.00 0.00 97 1015.3
20260906044426 15 38 0.0 0.0 0.00 0.00 0.00 96 1015.1
20260906043922 15 38 0.0 0.0 0.00 0.00 0.00 96 1015.2
20260906043417 15 38 0.0 0.0 0.00 0.00 0.00 96 1015.5
20260906042913 15 38 0.0 0.0 0.00 0.00 0.00 96 1015.5
20260906042412 15 38 1.6 0.0 0.00 0.00 0.00 96 1015.4
20260906041907 15 38 0.0 1.6 0.00 0.00 0.00 95 1015.6
20260906041403 15 38 0.0 1.6 0.00 0.00 0.00 94 1015.5
20260906040903 15 38 0.0 0.0 0.00 0.00 0.00 93 1015.7
20260906040358 15 38 0.0 0.0 0.00 0.00 0.00 93 1015.6
20260906035853 15 39 0.0 0.0 0.00 0.03 0.03 93 1015.6
20260906035349 15 39 0.0 0.0 0.00 0.03 0.03 91 1015.5
20260906034843 15 39 0.0 0.0 0.00 0.03 0.03 91 1015.5
20260906034338 15 38 0.0 0.0 0.00 0.03 0.03 91 1015.5
20260906033834 15 38 0.0 0.0 0.00 0.03 0.03 90 1015.6
20260906033333 15 39 0.0 1.6 0.00 0.03 0.03 90 1015.6
20260906032830 15 38 0.0 0.0 0.00 0.03 0.03 90 1015.5
20260906032326 15 38 0.0 0.0 0.00 0.03 0.03 90 1015.5
20260906031821 15 38 0.0 1.6 0.00 0.03 0.03 90 1015.6
20260906031316 15 43 0.0 0.0 0.00 0.03 0.03 89 1015.7
20260906030815 16 43 0.0 0.0 0.00 0.03 0.03 89 1015.5
20260906030311 16 44 0.0 0.0 0.00 0.03 0.03 87 1015.4
20260906025810 16 44 0.0 0.0 0.00 0.03 0.03 87 1015.3
20260906025259 16 355 0.0 0.0 0.00 0.03 0.03 88 1015.5
20260906024758 16 354 0.0 0.0 0.00 0.03 0.03 91 1015.5
20260906024258 15 354 0.0 0.0 0.00 0.03 0.03 91 1015.6
20260906023753 16 354 0.0 0.0 0.00 0.03 0.03 90 1015.3
20260906023249 16 354 0.0 0.0 0.00 0.03 0.03 90 1015.3
20260906022744 16 354 0.0 0.0 0.00 0.03 0.03 90 1015.2
20260906022239 16 354 0.0 0.0 0.00 0.03 0.03 88 1015.4
20260906021736 16 354 0.0 0.0 0.00 0.03 0.03 88 1015.2
20260906021234 16 354 0.0 0.0 0.00 0.03 0.03 88 1015.3
20260906020729 16 354 1.6 1.6 0.00 0.03 0.03 88 1015.4
20260906020224 16 354 0.0 1.6 0.00 0.03 0.03 89 1015.2
20260906015724 16 353 0.0 1.6 0.00 0.03 0.03 90 1015.4
20260906015222 16 353 1.6 1.6 0.00 0.03 0.03 92 1015.1
20260906014716 16 353 0.0 0.0 0.00 0.03 0.03 92 1015.1
20260906014213 16 353 0.0 0.0 0.00 0.03 0.03 92 1015.1
20260906013708 16 353 0.0 0.0 0.00 0.03 0.03 91 1015.0
20260906013208 16 353 0.0 0.0 0.00 0.03 0.03 90 1015.0
20260906012703 16 353 0.0 0.0 0.00 0.03 0.03 89 1015.0
20260906012158 16 353 0.0 0.0 0.00 0.03 0.03 88 1015.2
20260906011654 16 353 0.0 0.0 0.00 0.03 0.03 87 1015.1
20260906011148 17 353 0.0 0.0 0.00 0.03 0.03 85 1015.0
20260906010644 17 353 0.0 0.0 0.00 0.03 0.03 84 1015.0
20260906010140 17 353 0.0 0.0 0.00 0.03 0.03 83 1014.9
20260906005639 17 353 0.0 0.0 0.00 0.03 0.03 80 1015.0
20260906005138 18 353 0.0 0.0 0.00 0.03 0.03 79 1015.0
20260906004638 18 353 0.0 0.0 0.00 0.03 0.03 78 1014.9
20260906004133 18 353 0.0 0.0 0.00 0.03 0.03 75 1014.8
20260906003628 18 38 0.0 1.6 0.00 0.03 0.03 74 1014.8
20260906003124 18 39 0.0 1.6 0.00 0.03 0.03 73 1014.7
20260906002619 19 39 0.0 0.0 0.00 0.03 0.03 72 1014.8
20260906002113 19 39 0.0 0.0 0.00 0.03 0.03 72 1014.7
20260906001608 20 39 0.0 1.6 0.00 0.03 0.03 68 1014.7
20260906001103 20 39 1.6 1.6 0.00 0.03 0.03 66 1014.7
20260906000559 20 39 1.6 6.4 0.00 0.03 0.03 65 1014.5
20260906000054 20 32 1.6 6.4 0.00 0.03 0.03 63 1014.7
20260905235553 21 358 8.0 8.0 0.00 0.03 0.03 63 1014.6
20260905235048 21 28 4.8 6.4 0.00 0.03 0.03 62 1014.5
20260905234544 21 343 3.2 6.4 0.00 0.03 0.03 62 1014.4
20260905234039 21 18 8.0 19.3 0.00 0.03 0.03 62 1014.6
20260905233538 21 34 4.8 8.0 0.00 0.03 0.03 63 1014.4
20260905233038 21 26 3.2 16.1 0.00 0.03 0.03 65 1014.4
20260905232534 21 30 8.0 11.3 0.00 0.03 0.03 67 1014.3
20260905232029 22 14 3.2 6.4 0.00 0.03 0.03 67 1014.2
20260905231524 22 50 1.6 8.0 0.00 0.03 0.03 67 1014.2
20260905231021 22 65 4.8 12.9 0.00 0.03 0.03 66 1014.1
20260905230520 22 61 14.5 17.7 0.00 0.03 0.03 65 1014.2
20260905230018 23 18 4.8 11.3 0.00 0.03 0.03 66 1014.0
20260905225513 23 40 12.9 17.7 0.00 0.03 0.03 65 1014.0
20260905225009 23 31 8.0 16.1 0.00 0.03 0.03 65 1014.0
20260905224504 23 56 6.4 12.9 0.00 0.03 0.03 66 1013.7
20260905224003 23 10 8.0 8.0 0.00 0.03 0.03 69 1013.7
20260905223501 23 42 8.0 11.3 0.00 0.03 0.03 69 1013.8
20260905222956 23 20 6.4 12.9 0.00 0.03 0.03 68 1013.7
20260905222456 23 344 6.4 8.0 0.00 0.03 0.03 69 1013.5
20260905221951 23 11 1.6 6.4 0.00 0.03 0.03 70 1013.7
20260905221447 23 347 4.8 8.0 0.00 0.03 0.03 71 1013.5
20260905220943 23 18 6.4 8.0 0.00 0.03 0.03 71 1013.5
20260905220439 23 52 8.0 12.9 0.00 0.03 0.03 70 1013.5
20260905215938 24 2 14.5 22.5 0.00 0.03 0.03 69 1013.3
20260905215434 24 6 11.3 16.1 0.00 0.03 0.03 71 1013.4
20260905214930 24 352 6.4 6.4 0.00 0.03 0.03 71 1013.3
20260905214426 25 35 4.8 8.0 0.00 0.03 0.03 70 1013.3
20260905213926 25 5 8.0 12.9 0.00 0.03 0.03 69 1013.2
20260905213422 25 70 1.6 16.1 0.00 0.03 0.03 70 1013.4
20260905212917 25 23 3.2 11.3 0.00 0.03 0.03 72 1013.1
20260905212412 24 31 6.4 11.3 0.00 0.03 0.03 72 1013.2
20260905211911 24 2 9.7 11.3 0.00 0.03 0.03 72 1013.2
20260905211407 24 43 8.0 16.1 0.00 0.03 0.03 72 1013.3
20260905210903 25 33 4.8 11.3 0.00 0.03 0.03 72 1013.2
20260905210357 25 24 3.2 4.8 0.00 0.03 0.03 72 1013.1
20260905205856 24 354 3.2 6.4 0.00 0.03 0.03 73 1013.1
20260905205351 24 37 3.2 8.0 0.00 0.03 0.03 73 1013.2
20260905204850 24 10 8.0 8.0 0.00 0.03 0.03 72 1013.2
20260905204347 24 4 6.4 8.0 0.00 0.03 0.03 72 1013.2
20260905203845 25 26 9.7 16.1 0.00 0.03 0.03 71 1013.3
20260905203341 25 84 4.8 6.4 0.00 0.03 0.03 70 1013.4
20260905202837 25 43 1.6 4.8 0.00 0.03 0.03 71 1013.4
20260905202331 25 74 3.2 6.4 0.00 0.03 0.03 72 1013.4
20260905201827 25 355 11.3 12.9 0.00 0.03 0.03 72 1013.3
20260905201323 25 44 3.2 11.3 0.00 0.03 0.03 71 1013.2
20260905200822 25 15 8.0 11.3 0.00 0.03 0.03 70 1013.4
20260905200318 25 35 8.0 11.3 0.00 0.03 0.03 69 1013.4
20260905195816 25 330 6.4 8.0 0.00 0.03 0.03 72 1013.3
20260905195311 25 52 4.8 6.4 0.00 0.03 0.03 69 1013.4
20260905194807 25 358 8.0 16.1 0.00 0.03 0.03 71 1013.5
20260905194301 25 31 4.8 8.0 0.00 0.03 0.03 72 1013.5
20260905193800 25 349 6.4 11.3 0.00 0.03 0.03 71 1013.7
20260905193255 25 23 8.0 11.3 0.00 0.03 0.03 71 1013.5
20260905192751 25 355 12.9 12.9 0.00 0.03 0.03 72 1013.4
20260905192247 25 328 9.7 12.9 0.00 0.03 0.03 72 1013.5
20260905191747 25 47 6.4 8.0 0.00 0.03 0.03 73 1013.7
20260905191245 24 38 6.4 8.0 0.00 0.03 0.03 74 1013.7
20260905190743 25 45 6.4 12.9 0.00 0.03 0.03 73 1013.8
20260905190243 25 43 8.0 12.9 0.00 0.03 0.03 72 1013.9
20260905185742 25 59 3.2 4.8 0.00 0.03 0.03 72 1013.8
20260905185237 25 3 4.8 6.4 0.00 0.03 0.03 73 1014.0
20260905184731 25 47 11.3 11.3 0.00 0.03 0.03 73 1014.0
20260905184230 25 9 14.5 16.1 0.00 0.03 0.03 72 1014.0
20260905183729 25 8 12.9 17.7 0.00 0.03 0.03 72 1014.1
20260905183225 25 33 8.0 17.7 0.00 0.03 0.03 75 1014.1
20260905182725 25 74 1.6 6.4 0.00 0.03 0.03 74 1013.9
20260905182224 25 61 4.8 8.0 0.00 0.03 0.03 73 1013.9
20260905181720 25 34 6.4 6.4 0.00 0.03 0.03 75 1014.0
20260905181218 24 67 3.2 8.0 0.00 0.03 0.03 76 1014.0
20260905180713 23 6 12.9 16.1 0.00 0.03 0.03 77 1014.0